Location: Chervonnoye
(48.6000°N, 34.4000°E)
Time: 14:48:00
(UTC+00:00)

N. Korean satellite - Pass Details

Date: 03 October 2021
Orbit: 450 x 495 km, 97.3° (Epoch: 19 October)

Event Time Altitude Azimuth Distance (km) Brightness Sun altitude
Rises 02:52:38 0° 16° (NNE) 2,554 10.5 -9.4°
Reaches altitude 10° 02:54:44 10° 20° (NNE) 1,676 9.6 -9.1°
Maximum altitude 02:58:17 59° 100° (E) 568 7.3 -8.5°
Drops below altitude 10° 03:01:53 10° 182° (S) 1,682 9.3 -7.9°
Sets 03:03:58 0° 186° (S) 2,563 10.2 -7.6°
